DW9064 Weather Reports


time (UTC)temp
C
wind
direction
speed
KPH
gust
KPH
rain 1hr
cm
rain 24hr
cm
rain mn
cm
humidity
%
barometer
mb
20260504202657 27 115 3.2 12.9 0.00 0.00 0.00 10 1023.8
20260504200857 27 92 4.8 14.5 0.00 0.00 0.00 13 1024.0
20260504195957 26 75 6.4 14.5 0.00 0.00 0.00 14 1024.0
20260504194157 25 132 3.2 12.9 0.00 0.00 0.00 21 1024.2
20260504193256 25 101 4.8 16.1 0.00 0.00 0.00 20 1024.4
20260504192357 25 84 6.4 16.1 0.00 0.00 0.00 22 1024.6
20260504191457 23 122 3.2 11.3 0.00 0.00 0.00 25 1024.6
20260504190557 23 92 4.8 12.9 0.00 0.00 0.00 28 1024.7
20260504185656 23 58 4.8 12.9 0.00 0.00 0.00 26 1024.7
20260504184756 23 86 6.4 11.3 0.00 0.00 0.00 27 1024.9
20260504183857 22 118 3.2 11.3 0.00 0.00 0.00 27 1024.9
20260504182956 22 103 6.4 12.9 0.00 0.00 0.00 27 1024.9
20260504182056 22 107 3.2 11.3 0.00 0.00 0.00 30 1025.0
20260504181156 22 100 4.8 11.3 0.00 0.00 0.00 32 1025.1
20260504180256 21 120 4.8 12.9 0.00 0.00 0.00 34 1025.3
20260504175356 21 97 6.4 12.9 0.00 0.00 0.00 32 1025.4
20260504174456 20 80 4.8 12.9 0.00 0.00 0.00 33 1025.4
20260504173556 20 89 3.2 9.7 0.00 0.00 0.00 35 1025.5
20260504172657 20 85 3.2 14.5 0.00 0.00 0.00 37 1025.5
20260504171756 19 94 6.4 14.5 0.00 0.00 0.00 36 1025.6
20260504170856 19 100 4.8 14.5 0.00 0.00 0.00 36 1025.6
20260504150256 12 101 3.2 11.3 0.00 0.00 0.00 63 1026.5
20260504140856 9 84 3.2 9.7 0.00 0.00 0.00 73 1026.5
20260504130556 6 18 3.2 6.4 0.00 0.00 0.00 79 1026.1
20260504100555 7 331 6.4 12.9 0.00 0.00 0.00 72 1025.3
20260504081755 9 347 9.7 12.9 0.00 0.00 0.00 69 1025.0
20260504080855 9 327 6.4 12.9 0.00 0.00 0.00 71 1025.1
20260504045955 12 320 12.9 14.5 0.00 0.00 0.00 63 1024.2
20260504045055 12 318 12.9 16.1 0.00 0.00 0.00 63 1024.3
20260504044155 13 321 11.3 16.1 0.00 0.00 0.00 61 1024.0
20260504043255 13 318 11.3 17.7 0.00 0.00 0.00 60 1024.1
20260504042355 13 321 12.9 16.1 0.00 0.00 0.00 60 1024.1
20260504041455 14 321 9.7 17.7 0.00 0.00 0.00 57 1024.0
20260504040555 14 323 11.3 17.7 0.00 0.00 0.00 56 1023.9
20260504034755 15 338 8.0 16.1 0.00 0.00 0.00 54 1023.7
20260504033855 15 332 12.9 16.1 0.00 0.00 0.00 59 1023.6
20260504032955 14 316 12.9 16.1 0.00 0.00 0.00 63 1023.6
20260504032055 15 314 12.9 16.1 0.00 0.00 0.00 62 1023.5
20260504030254 15 314 12.9 16.1 0.00 0.00 0.00 60 1023.2
20260504025355 16 314 11.3 14.5 0.00 0.00 0.00 58 1023.3
20260504024454 16 327 9.7 16.1 0.00 0.00 0.00 53 1023.2
20260504023554 16 329 12.9 17.7 0.00 0.00 0.00 54 1023.2
20260504022655 16 318 16.1 19.3 0.00 0.00 0.00 52 1023.1
20260504021754 16 320 14.5 17.7 0.00 0.00 0.00 53 1022.8
20260504020855 16 314 14.5 17.7 0.00 0.00 0.00 55 1023.0
20260504015954 16 315 14.5 17.7 0.00 0.00 0.00 56 1022.8
20260504015055 17 315 14.5 17.7 0.00 0.00 0.00 54 1022.7
20260504014154 17 314 14.5 17.7 0.00 0.00 0.00 54 1022.7
20260504013254 17 316 14.5 17.7 0.00 0.00 0.00 52 1022.6
20260504010554 19 314 14.5 16.1 0.00 0.00 0.00 45 1022.5
20260504003854 23 314 8.0 12.9 0.00 0.00 0.00 32 1022.9
20260504002954 25 324 8.0 11.3 0.00 0.00 0.00 25 1023.0
20260504002055 27 335 6.4 12.9 0.00 0.00 0.00 20 1023.0
20260504001154 29 38 1.6 6.4 0.00 0.00 0.00 12 1023.2
20260504000254 29 53 1.6 4.8 0.00 0.00 0.00 10 1023.3
20260503235354 29 158 1.6 12.9 0.00 0.00 0.00 10 1023.4
20260503231754 28 156 6.4 12.9 0.00 0.00 0.00 10 1023.8
20260503230854 28 155 3.2 11.3 0.00 0.00 0.00 10 1023.9
20260503225954 28 144 3.2 12.9 0.00 0.00 0.00 10 1024.1
20260503225054 28 176 4.8 12.9 0.00 0.00 0.00 10 1024.2
20260503223254 29 139 6.4 8.0 0.00 0.00 0.00 10 1024.5
20260503222354 28 120 4.8 9.7 0.00 0.00 0.00 10 1024.7
20260503221454 28 121 0.0 9.7 0.00 0.00 0.00 10 1024.8
20260503220554 28 128 3.2 11.3 0.00 0.00 0.00 10 1025.0
20260503212954 28 110 3.2 8.0 0.00 0.00 0.00 10 1025.7
20260503212054 27 144 1.6 9.7 0.00 0.00 0.00 10 1025.9
20260503211154 27 134 6.4 9.7 0.00 0.00 0.00 10 1025.9
20260503210254 27 135 3.2 11.3 0.00 0.00 0.00 10 1026.2
20260503205354 27 131 6.4 12.9 0.00 0.00 0.00 10 1026.3
20260503204454 27 127 8.0 12.9 0.00 0.00 0.00 10 1026.4